DW1234 Weather Reports


Display with metric or nautical units.
time (UTC)temp
F
wind
direction
speed
MPH
gust
MPH
rain 1hr
in
rain 24hr
in
rain mn
in
humidity
%
barometer
mb
20180723112724 70 286 0.0 4.0 0.00 0.00 0.00 86 1018.1
20180723112226 70 286 1.0 4.0 0.00 0.00 0.00 86 1018.1
20180723111730 70 292 1.0 4.0 0.00 0.00 0.00 86 1018.0
20180723111214 70 138 0.0 1.0 0.00 0.00 0.00 86 1017.7
20180723110721 70 138 0.0 0.0 0.00 0.00 0.00 86 1017.7
20180723110223 70 138 0.0 1.0 0.00 0.00 0.00 86 1017.6
20180723105728 70 138 0.0 2.0 0.00 0.00 0.00 86 1017.4
20180723105213 70 138 0.0 2.0 0.00 0.00 0.00 86 1017.2
20180723104717 70 138 1.0 2.0 0.00 0.00 0.00 85 1017.0
20180723104223 71 138 1.0 2.0 0.00 0.00 0.00 85 1016.9
20180723103712 71 138 0.0 2.0 0.00 0.00 0.00 84 1017.0
20180723103220 71 138 0.0 2.0 0.00 0.00 0.00 84 1017.0
20180723102723 71 138 1.0 3.0 0.00 0.00 0.00 84 1017.0
20180723102229 71 138 2.0 3.0 0.00 0.00 0.00 83 1016.9
20180723101714 71 138 0.0 2.0 0.00 0.00 0.00 82 1017.0
20180723101219 71 138 1.0 3.0 0.00 0.00 0.00 82 1017.0
20180723100727 71 138 1.0 3.0 0.00 0.00 0.00 82 1016.9
20180723100230 71 138 2.0 2.0 0.00 0.00 0.00 82 1016.9
20180723095713 71 138 0.0 2.0 0.00 0.00 0.00 82 1016.8
20180723095218 71 138 1.0 2.0 0.00 0.00 0.00 82 1016.8
20180723094727 71 138 1.0 2.0 0.00 0.00 0.00 82 1016.8
20180723094216 71 138 1.0 3.0 0.00 0.00 0.00 82 1016.7
20180723093721 71 138 2.0 3.0 0.00 0.00 0.00 83 1016.9
20180723093226 71 138 2.0 3.0 0.00 0.00 0.00 82 1017.0
20180723092711 71 138 1.0 3.0 0.00 0.00 0.00 82 1017.0
20180723092215 71 138 2.0 3.0 0.00 0.00 0.00 82 1017.0
20180723091723 71 138 2.0 3.0 0.00 0.00 0.00 82 1017.0
20180723091214 70 138 2.0 4.0 0.00 0.00 0.00 82 1017.1
20180723090715 70 138 2.0 4.0 0.00 0.00 0.00 82 1017.0
20180723090213 70 137 2.0 4.0 0.00 0.00 0.00 83 1017.1
20180723085722 70 137 2.0 4.0 0.00 0.00 0.00 83 1017.2
20180723085225 70 136 1.0 4.0 0.00 0.00 0.00 83 1017.1
20180723084711 70 136 2.0 4.0 0.00 0.00 0.00 83 1017.1
20180723084216 70 84 0.0 1.0 0.00 0.00 0.00 83 1017.1
20180723083724 70 84 0.0 2.0 0.00 0.00 0.00 83 1017.0
20180723083229 70 84 1.0 3.0 0.00 0.00 0.00 83 1016.9
20180723082714 70 84 2.0 3.0 0.00 0.00 0.00 83 1016.8
20180723082218 70 84 1.0 3.0 0.00 0.00 0.00 83 1016.7
20180723081721 70 84 1.0 3.0 0.00 0.00 0.00 83 1016.6
20180723081226 70 84 1.0 3.0 0.00 0.00 0.00 84 1016.6
20180723080714 70 84 1.0 3.0 0.00 0.00 0.00 84 1016.7
20180723080217 70 84 1.0 3.0 0.00 0.00 0.00 84 1016.7
20180723075722 70 84 2.0 3.0 0.00 0.00 0.00 84 1016.8
20180723075208 70 84 2.0 3.0 0.00 0.00 0.00 84 1016.9
20180723074715 70 84 2.0 3.0 0.00 0.00 0.00 84 1016.9
20180723074218 70 84 2.0 3.0 0.00 0.00 0.00 84 1017.0
20180723073723 70 84 2.0 5.0 0.00 0.00 0.00 84 1016.9
20180723073226 70 84 2.0 5.0 0.00 0.00 0.00 84 1016.9
20180723072711 70 84 3.0 5.0 0.00 0.00 0.00 84 1017.0
20180723072216 70 84 2.0 5.0 0.00 0.00 0.00 84 1017.0
20180723071716 71 71 2.0 3.0 0.00 0.00 0.00 84 1017.1
20180723071226 71 67 0.0 2.0 0.00 0.00 0.00 84 1017.1
20180723070711 71 67 0.0 2.0 0.00 0.00 0.00 84 1017.2
20180723070210 71 67 0.0 2.0 0.00 0.00 0.00 84 1017.2
20180723065717 71 67 0.0 3.0 0.00 0.00 0.00 84 1017.1
20180723065220 71 67 0.0 3.0 0.00 0.00 0.00 84 1017.0
20180723064726 71 67 1.0 3.0 0.00 0.00 0.00 84 1017.0
20180723064211 71 67 1.0 3.0 0.00 0.00 0.00 83 1016.9
20180723063716 71 67 1.0 2.0 0.00 0.00 0.00 83 1016.8
20180723063221 71 67 1.0 2.0 0.00 0.00 0.00 83 1016.9
20180723062726 71 67 0.0 3.0 0.00 0.00 0.00 82 1017.1
20180723062215 72 67 0.0 3.0 0.00 0.00 0.00 82 1017.0
20180723061717 72 67 0.0 3.0 0.00 0.00 0.00 82 1017.0
20180723061227 72 67 1.0 3.0 0.00 0.00 0.00 82 1016.9
20180723060711 72 61 1.0 3.0 0.00 0.00 0.00 82 1016.9
20180723060211 72 61 2.0 3.0 0.00 0.00 0.00 82 1017.0
20180723055715 72 60 1.0 3.0 0.00 0.00 0.00 82 1016.9
20180723055224 72 51 1.0 3.0 0.00 0.00 0.00 82 1017.0
20180723054713 72 42 0.0 0.0 0.00 0.00 0.00 81 1017.1
20180723054221 72 42 0.0 1.0 0.00 0.00 0.00 81 1017.2
20180723053724 73 42 0.0 1.0 0.00 0.00 0.00 80 1017.2
20180723053211 73 42 0.0 1.0 0.00 0.00 0.00 80 1017.1
20180723052718 73 42 0.0 2.0 0.00 0.00 0.00 80 1017.1
20180723052221 73 42 1.0 2.0 0.00 0.00 0.00 80 1017.0
20180723051727 73 42 1.0 3.0 0.00 0.00 0.00 81 1016.9
20180723051211 73 42 1.0 4.0 0.00 0.00 0.00 80 1016.9
20180723050720 73 42 1.0 4.0 0.00 0.00 0.00 81 1016.9
20180723050225 73 42 2.0 4.0 0.00 0.00 0.00 80 1016.9
20180723045715 73 41 1.0 3.0 0.00 0.00 0.00 80 1016.9
20180723045221 73 41 1.0 3.0 0.00 0.00 0.00 80 1016.8
20180723044724 73 38 1.0 4.0 0.00 0.00 0.00 80 1017.0
20180723044212 73 32 1.0 4.0 0.00 0.00 0.00 79 1016.9
20180723043716 73 22 1.0 3.0 0.00 0.00 0.00 79 1017.0
20180723043220 74 58 2.0 4.0 0.00 0.00 0.00 79 1016.9
20180723042725 74 59 2.0 4.0 0.00 0.00 0.00 78 1016.8
20180723042211 74 62 2.0 3.0 0.00 0.00 0.00 78 1016.8
20180723041721 74 62 2.0 3.0 0.00 0.00 0.00 77 1016.8
20180723041225 74 99 2.0 3.0 0.00 0.00 0.00 77 1016.9
20180723040712 74 99 1.0 2.0 0.00 0.00 0.00 76 1016.9
20180723040214 74 99 1.0 2.0 0.00 0.00 0.00 76 1016.7
20180723035720 74 99 1.0 2.0 0.00 0.00 0.00 76 1016.8
20180723035226 74 99 1.0 2.0 0.00 0.00 0.00 76 1016.6
20180723034713 74 99 0.0 2.0 0.00 0.00 0.00 76 1016.6
20180723034219 74 99 1.0 3.0 0.00 0.00 0.00 75 1016.5
20180723033721 74 99 1.0 3.0 0.00 0.00 0.00 75 1016.6
20180723033227 74 99 1.0 2.0 0.00 0.00 0.00 75 1016.5
20180723032710 74 99 1.0 2.0 0.00 0.00 0.00 75 1016.4
20180723032216 75 99 1.0 3.0 0.00 0.00 0.00 74 1016.4
20180723031724 75 99 1.0 3.0 0.00 0.00 0.00 74 1016.4
20180723031229 75 99 1.0 2.0 0.00 0.00 0.00 73 1016.4
20180723030713 75 99 1.0 2.0 0.00 0.00 0.00 73 1016.2
20180723030214 75 99 0.0 1.0 0.00 0.00 0.00 73 1016.0
20180723025721 75 99 0.0 1.0 0.00 0.00 0.00 73 1015.9
20180723025227 75 99 0.0 3.0 0.00 0.00 0.00 74 1015.9
20180723024711 75 99 0.0 3.0 0.00 0.00 0.00 74 1015.8
20180723024215 75 99 1.0 2.0 0.00 0.00 0.00 73 1015.7
20180723023717 76 99 1.0 2.0 0.00 0.00 0.00 73 1015.7
20180723023223 76 99 1.0 2.0 0.00 0.00 0.00 73 1015.6
20180723022730 76 99 1.0 2.0 0.00 0.00 0.00 72 1015.7
20180723022213 76 99 0.0 2.0 0.00 0.00 0.00 72 1015.5
20180723021719 76 99 0.0 2.0 0.00 0.00 0.00 72 1015.3
20180723021224 77 99 1.0 2.0 0.00 0.00 0.00 71 1015.3
20180723020713 77 99 0.0 2.0 0.00 0.00 0.00 70 1015.3
20180723020213 77 99 1.0 1.0 0.00 0.00 0.00 70 1015.3
20180723015718 77 99 0.0 2.0 0.00 0.00 0.00 70 1015.3
20180723015221 77 99 1.0 3.0 0.00 0.00 0.00 70 1015.3
20180723014724 77 99 1.0 3.0 0.00 0.00 0.00 70 1015.2
20180723014229 77 99 1.0 3.0 0.00 0.00 0.00 70 1015.3
20180723013713 77 99 0.0 3.0 0.00 0.00 0.00 69 1015.2
20180723013223 78 99 1.0 3.0 0.00 0.00 0.00 69 1015.2
20180723012725 78 109 1.0 2.0 0.00 0.00 0.00 69 1015.2
20180723012214 78 109 1.0 5.0 0.00 0.00 0.00 68 1015.2
20180723011715 78 109 2.0 5.0 0.00 0.00 0.00 68 1015.0
20180723011222 78 111 1.0 7.0 0.00 0.00 0.00 68 1015.1
20180723010730 78 98 2.0 7.0 0.00 0.00 0.00 67 1015.0
20180723010229 79 98 3.0 6.0 0.00 0.00 0.00 67 1014.9
20180723005711 79 105 4.0 5.0 0.00 0.00 0.00 67 1014.8
20180723005217 79 111 3.0 9.0 0.00 0.00 0.00 67 1014.7
20180723004723 79 105 4.0 10.0 0.00 0.00 0.00 67 1014.7
20180723004208 79 85 3.0 10.0 0.00 0.00 0.00 67 1014.7
20180723003713 80 103 3.0 9.0 0.00 0.00 0.00 67 1014.7
20180723003216 80 92 4.0 9.0 0.00 0.00 0.00 67 1014.7
20180723002720 80 101 5.0 10.0 0.00 0.00 0.00 66 1014.8
20180723002225 80 109 4.0 10.0 0.00 0.00 0.00 66 1014.9
20180723001713 81 107 7.0 10.0 0.00 0.00 0.00 65 1014.8
20180723001221 81 112 5.0 10.0 0.00 0.00 0.00 65 1014.8
20180723000724 81 95 5.0 10.0 0.00 0.00 0.00 64 1014.8
20180723000225 82 114 3.0 8.0 0.00 0.00 0.00 64 1014.8
20180722235728 82 100 3.0 8.0 0.00 0.00 0.00 63 1014.9
20180722235214 82 110 2.0 8.0 0.00 0.00 0.00 63 1014.9
20180722234718 82 98 6.0 8.0 0.00 0.00 0.00 61 1015.0
20180722234227 82 96 2.0 7.0 0.00 0.00 0.00 61 1015.0
20180722233715 82 96 2.0 7.0 0.00 0.00 0.00 63 1015.0
20180722233221 82 96 2.0 9.0 0.00 0.00 0.00 62 1015.1
20180722232729 82 99 4.0 9.0 0.00 0.00 0.00 60 1015.1
20180722232215 82 104 4.0 8.0 0.00 0.00 0.00 60 1015.1
20180722231721 82 88 2.0 9.0 0.00 0.00 0.00 62 1015.2
20180722231227 82 45 5.0 9.0 0.00 0.00 0.00 61 1015.1
20180722230710 82 94 4.0 9.0 0.00 0.00 0.00 62 1015.2
20180722230214 82 100 3.0 9.0 0.00 0.00 0.00 62 1015.2
20180722225719 82 109 4.0 9.0 0.00 0.00 0.00 61 1015.2
20180722225226 82 105 3.0 5.0 0.00 0.00 0.00 59 1015.2
20180722224729 82 108 2.0 7.0 0.00 0.00 0.00 60 1015.2
20180722224215 82 94 3.0 7.0 0.00 0.00 0.00 61 1015.2
20180722223723 82 91 4.0 7.0 0.00 0.00 0.00 61 1015.2
20180722223209 82 102 1.0 6.0 0.00 0.00 0.00 61 1015.3
20180722222714 82 103 3.0 6.0 0.00 0.00 0.00 63 1015.3
20180722222220 82 80 2.0 6.0 0.00 0.00 0.00 62 1015.4
20180722221726 82 103 1.0 7.0 0.00 0.00 0.00 64 1015.4
20180722221230 82 104 3.0 7.0 0.00 0.00 0.00 62 1015.4
20180722220715 82 89 2.0 7.0 0.00 0.00 0.00 63 1015.3
20180722220219 82 18 3.0 6.0 0.00 0.00 0.00 62 1015.3
20180722215724 82 56 2.0 5.0 0.00 0.00 0.00 62 1015.3
20180722215212 82 81 2.0 8.0 0.00 0.00 0.00 62 1015.3
20180722214721 82 12 3.0 8.0 0.00 0.00 0.00 62 1015.4
20180722214209 82 133 4.0 7.0 0.00 0.00 0.00 61 1015.4
20180722213715 82 84 2.0 7.0 0.00 0.00 0.00 63 1015.4
20180722213220 82 61 3.0 7.0 0.00 0.00 0.00 62 1015.4
20180722212725 82 29 3.0 7.0 0.00 0.00 0.00 63 1015.4
20180722212213 82 44 2.0 10.0 0.00 0.00 0.00 62 1015.5
20180722211717 82 99 5.0 10.0 0.00 0.00 0.00 62 1015.5
20180722211220 82 103 2.0 8.0 0.00 0.00 0.00 64 1015.4
20180722210725 82 95 2.0 10.0 0.00 0.00 0.00 62 1015.4
20180722210209 81 103 6.0 10.0 0.00 0.00 0.00 63 1015.6
20180722205721 82 94 6.0 10.0 0.00 0.00 0.00 61 1015.6
20180722205225 82 109 2.0 8.0 0.00 0.00 0.00 64 1015.6
20180722204729 82 88 3.0 8.0 0.00 0.00 0.00 64 1015.5
20180722204215 82 110 4.0 9.0 0.00 0.00 0.00 64 1015.6
20180722203717 82 100 6.0 9.0 0.00 0.00 0.00 64 1015.6
20180722203221 82 88 2.0 10.0 0.00 0.00 0.00 65 1015.6
20180722202710 81 91 4.0 10.0 0.00 0.00 0.00 64 1015.7
20180722202211 81 95 4.0 8.0 0.00 0.00 0.00 64 1015.8
20180722201718 81 92 3.0 9.0 0.00 0.00 0.00 63 1015.9
20180722201222 81 76 2.0 9.0 0.00 0.00 0.00 64 1015.8
20180722200725 81 100 4.0 9.0 0.00 0.00 0.00 63 1015.9
20180722200230 81 109 3.0 7.0 0.00 0.00 0.00 65 1016.0
20180722195715 81 150 2.0 7.0 0.00 0.00 0.00 64 1016.0
20180722195222 81 117 3.0 9.0 0.00 0.00 0.00 62 1016.1
20180722194728 81 101 3.0 9.0 0.00 0.00 0.00 63 1016.1
20180722194211 81 98 3.0 7.0 0.00 0.00 0.00 64 1016.2
20180722193715 81 96 2.0 6.0 0.00 0.00 0.00 66 1016.2
20180722193220 81 97 3.0 8.0 0.00 0.00 0.00 67 1016.2
20180722192726 80 98 1.0 8.0 0.00 0.00 0.00 66 1016.2
20180722192212 81 94 4.0 8.0 0.00 0.00 0.00 66 1016.2
20180722191716 80 104 3.0 7.0 0.00 0.00 0.00 67 1016.2
20180722191225 80 105 3.0 7.0 0.00 0.00 0.00 66 1016.2
20180722190712 80 34 2.0 7.0 0.00 0.00 0.00 65 1016.2
20180722190214 80 102 2.0 8.0 0.00 0.00 0.00 66 1016.2
20180722185720 80 105 2.0 9.0 0.00 0.00 0.00 66 1016.2
20180722185229 80 104 5.0 9.0 0.00 0.00 0.00 68 1016.1
20180722184712 80 111 5.0 9.0 0.00 0.00 0.00 67 1016.1
20180722184220 80 112 3.0 7.0 0.00 0.00 0.00 64 1016.2
20180722183724 80 89 0.0 9.0 0.00 0.00 0.00 67 1016.2
20180722183212 80 95 6.0 9.0 0.00 0.00 0.00 67 1016.2
20180722182718 80 83 4.0 8.0 0.00 0.00 0.00 66 1016.3
20180722182225 80 50 1.0 5.0 0.00 0.00 0.00 67 1016.3
20180722181709 79 59 3.0 7.0 0.00 0.00 0.00 68 1016.3
20180722181218 79 59 2.0 8.0 0.00 0.00 0.00 68 1016.4
20180722180723 79 105 2.0 8.0 0.00 0.00 0.00 68 1016.4
20180722180229 79 98 2.0 9.0 0.00 0.00 0.00 67 1016.4
20180722175712 79 338 4.0 9.0 0.00 0.00 0.00 67 1016.2
20180722175219 79 15 2.0 6.0 0.00 0.00 0.00 67 1016.3
20180722174724 79 67 2.0 6.0 0.00 0.00 0.00 67 1016.3
20180722174212 79 80 3.0 6.0 0.00 0.00 0.00 66 1016.3
20180722173718 79 49 3.0 8.0 0.00 0.00 0.00 68 1016.3
20180722173224 79 24 3.0 8.0 0.00 0.00 0.00 68 1016.3
20180722172712 78 97 4.0 8.0 0.00 0.00 0.00 68 1016.3
20180722172215 78 88 3.0 6.0 0.00 0.00 0.00 67 1016.3
20180722171721 78 32 3.0 7.0 0.00 0.00 0.00 69 1016.4
20180722171228 78 24 3.0 7.0 0.00 0.00 0.00 67 1016.5
20180722170713 78 61 3.0 9.0 0.00 0.00 0.00 66 1016.5
20180722170212 79 19 4.0 11.0 0.00 0.00 0.00 67 1016.5
20180722165718 79 56 3.0 11.0 0.00 0.00 0.00 68 1016.5
20180722165220 78 92 5.0 10.0 0.00 0.00 0.00 68 1016.5
20180722164724 78 86 4.0 8.0 0.00 0.00 0.00 68 1016.4
20180722164216 78 76 2.0 8.0 0.00 0.00 0.00 68 1016.5
20180722163722 78 105 3.0 8.0 0.00 0.00 0.00 68 1016.6
20180722163229 78 107 5.0 8.0 0.00 0.00 0.00 69 1016.7
20180722162712 78 40 3.0 6.0 0.00 0.00 0.00 68 1016.7
20180722162216 78 114 2.0 5.0 0.00 0.00 0.00 68 1016.6
20180722161721 78 81 2.0 5.0 0.00 0.00 0.00 68 1016.6
20180722161208 78 52 1.0 6.0 0.00 0.00 0.00 70 1016.5
20180722160714 78 355 2.0 8.0 0.00 0.00 0.00 69 1016.6
20180722160214 77 98 2.0 10.0 0.00 0.00 0.00 69 1016.5
20180722155722 77 97 6.0 10.0 0.00 0.00 0.00 69 1016.5
20180722155213 77 96 5.0 9.0 0.00 0.00 0.00 70 1016.3
20180722154719 77 111 3.0 9.0 0.00 0.00 0.00 70 1016.3
20180722154224 77 74 4.0 10.0 0.00 0.00 0.00 69 1016.3
20180722153725 77 94 3.0 13.0 0.00 0.00 0.00 69 1016.3
20180722153212 77 105 7.0 13.0 0.00 0.00 0.00 69 1016.2
20180722152717 77 86 4.0 13.0 0.00 0.00 0.00 70 1016.2
20180722152220 77 96 8.0 11.0 0.00 0.00 0.00 70 1016.3
20180722151723 77 110 3.0 8.0 0.00 0.00 0.00 70 1016.3
20180722151225 77 102 3.0 8.0 0.00 0.00 0.00 71 1016.4
20180722150729 76 99 1.0 10.0 0.00 0.00 0.00 72 1016.4
20180722150211 76 114 3.0 10.0 0.00 0.00 0.00 73 1016.5
20180722145718 75 100 3.0 10.0 0.00 0.00 0.00 74 1016.4
20180722145225 75 126 7.0 10.0 0.00 0.00 0.00 75 1016.4
20180722144709 74 108 4.0 10.0 0.00 0.00 0.00 78 1016.3
20180722144215 74 109 2.0 8.0 0.00 0.00 0.00 79 1016.3
20180722143720 73 103 4.0 8.0 0.00 0.00 0.00 79 1016.3
20180722143207 73 114 3.0 8.0 0.00 0.00 0.00 81 1016.2
20180722142714 72 105 2.0 7.0 0.00 0.00 0.00 82 1016.2
20180722142220 72 104 5.0 7.0 0.00 0.00 0.00 81 1016.2
20180722141723 72 146 5.0 9.0 0.00 0.00 0.00 82 1016.3
20180722141229 71 113 4.0 9.0 0.00 0.00 0.00 83 1016.3
20180722140717 71 112 4.0 9.0 0.00 0.00 0.00 84 1016.5
20180722140216 71 92 5.0 10.0 0.00 0.00 0.00 84 1016.5
20180722135720 71 100 6.0 11.0 0.00 0.00 0.00 84 1016.4
20180722135224 70 69 5.0 11.0 0.00 0.00 0.00 84 1016.4
20180722134728 70 98 4.0 9.0 0.00 0.00 0.00 85 1016.4
20180722134214 70 103 6.0 9.0 0.00 0.00 0.00 85 1016.6
20180722133717 70 81 5.0 8.0 0.00 0.00 0.00 86 1016.8
20180722133221 70 111 3.0 11.0 0.00 0.00 0.00 86 1016.6
20180722132724 69 94 6.0 11.0 0.00 0.00 0.00 86 1016.6
20180722132229 69 107 3.0 5.0 0.00 0.00 0.00 87 1016.8
20180722131712 69 96 2.0 5.0 0.00 0.00 0.00 87 1016.8
20180722131224 69 34 2.0 5.0 0.00 0.00 0.00 87 1016.7
20180722130728 69 101 3.0 6.0 0.00 0.00 0.00 88 1016.7
20180722130208 68 90 2.0 6.0 0.00 0.00 0.00 89 1016.8
20180722125715 68 43 2.0 6.0 0.00 0.00 0.00 89 1016.8
20180722125221 68 45 2.0 5.0 0.00 0.00 0.00 89 1016.8
20180722124724 68 45 2.0 4.0 0.00 0.00 0.00 89 1016.8
20180722124210 67 45 2.0 4.0 0.00 0.00 0.00 89 1016.7
20180722123715 67 46 1.0 4.0 0.00 0.00 0.00 89 1016.6
20180722123219 67 46 1.0 4.0 0.00 0.00 0.00 89 1016.7
20180722122721 67 46 1.0 4.0 0.00 0.00 0.00 90 1016.5
20180722122225 67 47 1.0 4.0 0.00 0.00 0.00 90 1016.5
20180722121711 67 46 2.0 4.0 0.00 0.00 0.00 90 1016.5
20180722121210 67 46 2.0 6.0 0.00 0.00 0.00 89 1016.5
20180722120714 67 48 2.0 6.0 0.00 0.00 0.00 90 1016.4
20180722120215 67 38 2.0 5.0 0.00 0.00 0.00 90 1016.3
20180722115719 67 76 2.0 6.0 0.00 0.00 0.00 90 1016.3
20180722115223 67 40 3.0 6.0 0.00 0.00 0.00 90 1016.4
20180722114709 66 38 2.0 6.0 0.00 0.00 0.00 90 1016.4
20180722114213 66 38 1.0 6.0 0.00 0.00 0.00 90 1016.4
20180722113716 66 96 2.0 6.0 0.00 0.00 0.00 90 1016.3
20180722113224 66 74 3.0 6.0 0.00 0.00 0.00 90 1016.3